Theta_e
313 313 312 312 312 312 313 310 306 302 301 301 298 294 292 292 291 291 291 291 290 290 290 290 290 290 289 289 288 288 288 288 287 287 287 287 286 286 286 286 286 286 286 286 286 286 286 286 286 286 286 286 285 285 285 285 285 285 285 285 285 285 285 286 286 285 286 286 286 286 286 285 286 286
313 314 312 311 310 310 311 309 304 302 302 300 296 293 292 291 291 290 290 290 289 289 289 289 291 292 290 288 288 288 288 288 287 287 287 287 286 286 286 286 286 286 286 286 286 286 287 287 287 286 286 286 285 285 285 285 285 285 284 284 285 285 285 286 285 285 286 286 286 286 286 285 286 286
311 312 312 310 309 309 309 306 303 302 301 297 293 291 291 291 290 290 289 289 289 289 289 290 292 292 290 288 288 288 288 288 287 287 287 287 287 287 287 287 287 287 287 287 287 287 287 287 287 286 286 286 285 285 285 285 285 285 285 284 285 285 285 285 285 285 285 286 286 285 285 285 285 286
312 311 311 309 308 308 307 304 302 301 298 293 291 291 291 290 290 289 289 289 289 290 291 293 292 290 288 288 288 288 287 287 287 287 287 287 287 287 287 287 287 287 287 287 287 287 287 287 287 286 286 286 285 285 285 285 285 285 285 285 285 285 285 285 285 285 285 285 286 285 285 285 285 286
312 311 310 309 307 306 306 303 300 298 294 292 291 291 290 290 289 289 289 290 291 293 294 294 292 290 289 288 287 287 287 287 287 287 287 287 287 287 287 287 287 287 287 287 287 287 287 287 287 286 286 286 286 285 285 285 285 285 285 285 285 285 285 285 285 286 286 286 286 286 285 285 285 285
312 310 310 308 306 305 304 301 297 294 292 291 291 291 290 290 290 291 293 294 296 297 296 294 293 291 290 289 288 287 287 287 287 287 287 287 287 287 287 287 287 287 287 287 287 287 287 287 287 287 286 286 286 286 286 286 286 286 286 286 286 286 286 286 286 286 286 286 286 285 285 285 285 285
309 308 308 307 305 305 303 298 294 292 291 291 291 291 291 291 293 296 297 298 298 298 296 295 294 293 292 291 290 288 287 287 287 287 287 287 287 287 287 288 288 288 288 288 287 287 287 287 287 286 286 286 286 286 286 286 286 286 286 286 286 286 285 285 285 285 285 285 285 285 285 285 284 284
304 305 307 307 305 304 300 295 292 291 291 291 291 291 293 296 298 298 298 298 297 297 296 296 295 295 294 292 290 289 288 288 287 287 287 287 287 287 288 288 288 288 288 288 288 287 287 287 287 286 286 286 286 286 286 286 286 286 286 286 285 285 285 285 285 285 285 285 285 285 284 284 284 284
302 305 307 306 304 301 296 293 291 291 291 291 292 295 298 299 298 298 297 297 297 296 296 296 295 295 294 292 291 290 289 289 288 287 287 287 287 288 289 289 289 288 288 288 288 287 287 287 287 286 286 286 286 286 287 287 286 286 286 286 285 285 285 285 285 284 284 284 284 284 284 284 284 283
303 306 306 305 301 297 294 292 291 291 291 292 295 298 299 298 298 298 297 297 296 296 295 295 295 294 293 293 292 291 290 289 288 288 287 288 288 289 289 289 289 288 288 288 287 287 287 287 287 287 287 287 287 287 287 287 286 286 286 285 285 285 284 284 284 284 283 283 283 283 283 283 283 283
304 304 303 300 296 293 292 291 291 291 292 295 298 299 298 298 298 297 297 296 296 295 295 294 294 293 293 292 292 291 290 289 289 289 289 289 289 289 289 289 289 288 288 287 287 287 287 287 287 287 286 286 286 286 286 286 286 285 284 284 284 284 284 284 283 283 282 282 282 282 282 282 282 282
302 299 296 294 292 291 291 291 291 292 294 297 299 298 298 298 297 297 297 296 295 295 294 294 293 292 292 291 291 290 290 290 290 289 289 289 289 289 289 289 289 288 288 287 287 287 287 286 286 286 286 286 286 285 285 285 284 284 283 283 283 283 283 282 282 281 281 280 281 281 281 281 281 280
297 293 291 290 291 290 290 290 291 294 297 298 298 298 297 297 297 296 296 295 295 294 293 292 291 291 290 290 290 290 290 289 289 289 288 288 288 288 288 289 288 287 287 287 287 287 286 285 285 285 285 285 285 284 284 284 283 283 282 282 282 281 281 280 280 280 279 279 279 279 280 280 280 279
292 290 290 290 290 289 289 291 294 296 297 297 297 297 297 297 296 296 295 295 294 293 292 291 291 290 290 290 290 290 290 289 289 288 288 288 288 288 287 288 288 287 285 285 285 285 285 284 283 283 283 284 283 283 283 283 282 282 282 281 280 280 279 279 279 279 279 279 279 279 279 279 279 278
290 289 289 289 289 289 290 293 295 296 297 297 297 297 296 296 296 295 295 294 293 293 292 291 291 291 291 291 290 290 290 289 288 288 288 287 287 286 285 286 286 286 284 283 283 283 284 282 282 282 283 282 282 282 282 282 281 281 281 280 280 279 279 279 279 279 279 278 278 279 279 278 278 278
290 290 289 289 289 290 292 294 295 296 296 296 296 296 295 295 295 295 294 294 293 293 292 292 291 291 291 291 290 289 289 288 288 287 287 286 285 284 283 283 284 284 283 282 282 282 283 282 282 282 282 282 282 281 281 281 280 280 280 279 279 279 279 279 279 278 278 278 278 278 278 278 277 277
290 290 290 290 289 291 293 295 295 296 296 296 295 295 295 295 294 294 294 293 293 293 292 292 291 291 290 290 290 289 288 287 287 286 285 284 283 283 283 282 283 283 282 282 281 282 282 282 281 281 281 281 281 280 280 280 279 279 279 279 279 279 279 279 279 278 278 277 278 278 278 277 277 277
290 290 290 290 290 292 294 294 295 295 295 295 295 295 294 294 294 294 293 293 293 292 292 291 291 290 290 289 289 288 286 285 285 284 283 283 282 282 282 282 282 282 282 281 281 281 281 281 281 280 280 280 280 280 279 279 279 279 279 279 278 278 278 278 278 278 277 277 277 278 277 277 276 276
289 290 289 290 291 293 294 294 294 294 294 294 294 294 294 294 293 293 293 293 292 292 291 291 290 290 289 289 288 287 285 284 283 283 282 282 281 281 282 282 282 282 282 281 281 281 280 280 280 280 280 279 279 279 279 279 278 278 278 278 278 278 278 278 277 277 277 277 277 277 277 276 276 276
289 289 289 290 292 293 293 294 294 294 294 294 294 294 294 293 292 292 292 292 292 291 291 290 290 289 288 287 286 285 283 283 282 282 282 281 281 281 280 281 281 281 281 280 280 280 280 280 280 279 279 279 278 278 278 278 278 278 277 277 277 277 277 277 277 276 276 277 277 276 276 276 275 275
288 289 290 291 292 292 292 293 293 293 293 293 294 294 293 292 292 292 292 292 291 291 290 289 288 287 286 286 285 284 284 283 282 281 281 281 280 280 280 280 280 280 280 279 280 280 279 279 279 278 278 278 278 278 277 277 277 277 277 276 276 276 276 276 276 275 275 275 275 275 275 274 274 274
288 289 290 291 291 291 292 292 292 293 293 293 293 292 292 292 292 292 291 291 291 290 289 288 287 287 286 286 286 285 283 282 281 280 280 280 280 280 280 279 279 279 279 279 279 279 278 278 278 277 277 277 277 277 276 276 276 276 275 275 275 275 275 275 275 274 274 274 274 274 273 273 273 273
287 289 290 291 291 291 291 292 292 292 292 292 292 292 291 291 291 291 291 290 289 288 287 287 287 287 286 285 284 283 282 281 280 280 280 279 279 279 279 279 279 279 278 278 278 277 277 277 277 276 276 276 276 276 276 275 275 275 274 274 274 274 274 274 274 274 274 274 273 273 273 273 273 273
288 289 290 290 290 291 291 292 292 292 292 292 291 291 291 291 291 290 289 288 288 287 287 287 286 286 285 284 283 282 281 280 279 279 279 279 279 279 278 278 279 278 278 277 277 277 277 276 276 276 275 275 275 275 275 275 274 274 274 274 273 273 273 273 273 273 273 273 273 272 272 273 272 272
288 288 289 290 290 291 291 291 291 291 291 291 290 291 291 291 290 289 288 287 287 287 286 286 285 284 284 283 282 281 280 279 279 279 279 279 279 278 278 277 277 277 277 277 277 276 275 275 275 275 274 274 274 274 274 274 274 274 273 273 273 273 273 272 272 273 273 273 272 272 272 272 272 272
288 288 289 289 290 290 290 290 290 290 290 290 290 291 290 289 288 287 287 287 287 286 285 284 284 283 282 282 281 280 279 279 278 278 278 278 277 277 277 276 275 275 275 275 275 274 274 274 274 273 273 274 274 274 273 273 273 273 273 272 272 272 272 272 272 272 272 272 272 272 272 271 271 272
288 288 289 289 289 289 290 290 290 290 290 290 290 290 289 288 287 287 287 286 285 285 284 283 283 282 282 281 280 280 279 279 278 277 277 276 276 276 275 275 274 274 273 273 273 272 272 271 272 272 272 272 272 272 272 272 273 273 272 272 271 271 271 271 272 272 272 271 271 271 271 271 271 271
288 288 289 289 289 289 289 289 290 290 290 290 289 288 287 287 287 286 286 285 284 283 283 282 282 281 281 280 279 279 278 277 277 276 275 275 274 274 274 274 273 273 272 272 271 271 270 270 270 270 270 270 271 271 271 271 271 271 271 271 271 271 271 271 271 272 271 271 271 271 271 271 271 271
288 288 289 289 289 289 290 290 290 290 289 288 288 287 287 287 286 285 284 283 283 282 282 281 281 280 279 279 278 277 276 276 275 275 275 275 274 274 273 273 273 272 272 271 271 270 269 269 269 268 268 269 269 269 269 269 269 270 269 269 270 270 271 271 271 271 270 270 271 271 270 270 270 270
288 288 289 289 289 290 290 290 289 288 288 288 287 287 286 285 284 283 283 282 282 282 281 281 280 279 278 278 277 276 276 275 275 275 274 274 274 273 273 273 273 272 271 271 270 270 269 268 268 267 267 267 267 268 268 268 268 268 268 268 269 269 270 270 270 270 270 270 270 270 270 269 270 270
289 289 290 290 290 290 289 289 288 288 288 287 286 285 284 283 283 282 282 282 281 281 280 279 279 278 277 277 276 276 275 275 274 274 273 273 273 272 272 272 272 272 271 270 269 269 268 268 267 266 266 266 266 267 267 267 266 266 267 267 268 268 269 269 268 268 269 269 269 269 269 269 270 270
290 290 290 290 290 289 288 288 288 287 286 285 284 284 283 283 282 282 282 281 280 280 279 279 278 277 277 276 276 275 275 274 274 273 273 272 272 272 272 271 271 272 271 271 270 269 268 267 267 266 265 265 266 266 266 266 266 266 266 267 267 268 268 268 267 268 268 269 269 269 269 269 269 269
290 290 289 288 288 288 288 287 286 285 284 284 283 283 282 282 282 281 281 280 279 279 278 278 277 277 276 276 275 275 274 274 273 273 272 272 272 272 271 271 270 270 270 270 270 269 268 268 267 266 265 265 265 265 265 265 266 266 267 267 267 267 267 266 266 267 268 268 268 268 268 269 269 269
289 288 288 288 288 287 286 285 285 284 283 283 283 282 282 282 281 281 280 279 278 278 277 277 276 276 275 275 275 274 274 273 273 272 272 272 271 271 271 270 270 269 269 269 269 268 268 268 267 266 265 264 264 264 264 265 266 266 267 267 267 266 266 266 266 267 267 267 267 266 267 268 269 268
288 288 288 287 286 285 285 284 284 283 283 283 282 282 282 281 281 280 279 278 278 277 277 276 276 275 275 275 274 274 273 273 272 272 272 271 271 270 270 270 269 269 269 268 268 268 267 267 267 266 265 264 264 264 264 265 265 265 266 266 266 266 265 265 265 266 267 266 266 265 266 267 269 268
287 287 286 285 285 284 284 283 283 283 283 282 282 281 281 280 280 279 278 277 277 277 276 276 275 275 274 274 273 273 273 272 272 271 271 271 271 270 270 269 269 268 268 268 267 267 267 266 266 265 264 264 263 263 264 264 265 265 264 264 265 265 265 265 265 266 266 265 265 265 266 267 268 268
286 285 285 284 284 284 283 283 283 282 282 282 281 281 280 280 279 278 278 277 276 276 276 275 275 274 274 273 273 273 272 272 271 271 271 271 270 270 270 269 269 268 268 268 267 267 266 266 265 264 263 263 263 263 263 264 265 265 264 264 264 265 265 265 266 266 265 265 265 265 266 266 267 268
285 284 284 284 284 283 283 283 282 282 282 281 281 280 279 279 278 278 277 277 276 276 275 274 274 274 273 273 273 272 272 271 271 271 270 270 270 270 269 269 268 268 268 267 267 266 266 265 265 264 263 262 262 262 262 263 265 266 265 264 264 264 265 264 264 264 264 264 264 265 265 266 266 267
284 284 284 283 283 283 282 282 282 281 281 281 280 279 279 278 278 277 277 276 276 275 274 274 273 273 273 272 272 272 272 271 271 270 270 270 269 269 269 268 268 268 267 267 267 266 266 265 265 264 263 263 263 262 262 263 264 265 265 265 264 264 264 263 263 263 263 263 264 265 266 266 267 267
284 283 283 283 282 282 282 282 281 281 280 280 279 279 278 277 277 277 276 276 275 274 274 273 273 272 272 272 272 271 271 271 270 270 270 269 269 268 268 268 268 267 267 267 267 266 266 265 265 264 264 263 263 263 263 263 264 265 265 265 264 263 263 263 263 263 263 264 265 265 266 266 266 267
283 283 282 282 282 282 281 281 281 280 280 279 279 278 278 277 276 276 276 275 275 274 273 272 272 272 272 272 272 271 271 270 270 269 269 269 268 268 268 268 267 267 267 267 266 266 266 265 265 265 264 264 264 264 264 264 265 265 265 265 265 264 264 263 263 264 264 264 264 264 264 265 265 266
282 282 282 282 281 281 281 281 280 280 280 279 278 278 277 276 276 276 275 274 274 273 272 272 272 272 272 272 271 271 270 270 270 269 269 268 268 268 268 268 267 267 267 267 266 266 266 265 265 265 265 264 264 264 264 264 264 265 265 265 265 265 264 264 264 264 264 264 264 264 264 265 265 265
282 282 281 281 281 281 281 280 280 280 279 279 278 277 277 276 276 275 274 274 273 273 272 271 271 271 271 271 271 271 270 270 269 269 268 268 268 268 268 267 267 267 267 267 266 266 266 265 265 265 265 265 264 264 264 264 264 264 265 265 265 265 265 265 265 265 265 265 265 265 265 265 266 266
282 281 281 281 281 281 280 280 280 279 278 278 277 277 276 276 275 275 274 273 273 272 272 271 271 271 271 271 271 270 270 269 269 269 268 268 268 268 268 267 267 267 267 266 266 266 266 265 265 265 265 264 264 264 264 264 264 264 264 264 265 265 265 265 266 266 266 265 265 265 265 265 266 266
281 281 281 281 281 280 280 279 279 278 278 277 276 276 275 275 275 274 273 273 272 272 271 271 271 271 271 270 270 270 269 269 269 268 268 268 268 267 267 267 267 267 266 266 266 266 266 265 265 265 265 265 264 264 264 264 264 264 264 264 264 264 264 265 265 266 266 266 265 265 265 265 265 265
Wind_Speed
44 42 38 37 35 32 28 25 25 23 21 20 19 17 15 14 13 12 12 10 8 7 8 8 8 10 11 12 14 16 17 18 19 20 21 22 23 23 24 25 26 26 27 28 28 29 30 31 32 32 32 33 33 33 33 32 32 31 30 30 30 31 32 32 32 32 32 30 32 34 34 35 35 34
44 41 38 36 34 31 27 25 23 23 22 20 18 16 13 12 12 11 10 8 7 8 8 10 12 14 14 16 17 19 19 19 20 21 21 22 22 23 24 25 25 26 27 28 29 29 31 32 33 33 33 33 33 33 33 32 32 32 31 31 32 32 33 33 33 33 34 34 34 36 36 37 37 36
43 41 39 36 34 31 27 24 22 22 21 19 16 14 12 12 11 11 11 10 9 10 11 13 15 15 15 18 20 21 21 21 22 23 23 23 23 24 25 25 26 27 28 29 30 31 32 33 34 34 34 33 33 33 33 33 32 32 32 32 33 34 34 34 34 35 36 37 36 37 38 38 39 38
43 40 38 36 34 31 27 24 22 21 20 17 15 14 13 13 13 12 13 13 13 14 15 15 15 15 17 19 21 21 22 22 23 24 24 24 25 26 27 27 27 28 29 30 31 32 33 34 34 34 33 33 33 33 33 33 33 33 33 34 34 35 35 35 36 36 37 38 38 39 39 39 40 38
38 36 34 33 33 29 25 23 21 20 19 17 16 15 15 15 15 14 14 15 16 16 17 16 16 17 19 21 22 22 23 24 25 25 25 25 26 27 28 29 29 29 30 31 31 32 33 33 34 34 33 33 32 33 33 33 33 33 34 34 34 35 35 36 37 38 39 39 40 40 40 41 41 39
33 32 31 31 30 27 24 22 21 20 19 18 17 17 17 17 16 15 15 16 17 17 17 17 18 19 21 23 23 24 25 26 26 27 27 26 27 28 29 30 30 30 30 31 32 32 33 33 34 34 33 33 33 33 34 34 34 34 34 34 35 36 37 38 39 40 41 41 41 41 40 41 41 38
32 31 30 30 29 26 24 23 21 21 20 19 19 19 18 15 13 13 14 15 17 17 16 17 19 21 24 25 26 26 27 28 28 29 29 28 29 30 30 31 32 31 32 33 33 34 34 34 34 34 34 34 34 34 35 35 35 35 36 36 37 38 39 39 40 41 42 42 42 41 40 41 40 37
30 30 31 30 28 26 25 24 23 23 21 20 19 17 14 12 11 12 12 13 14 16 17 17 19 22 25 27 27 28 30 30 30 30 31 31 31 31 32 33 34 34 34 35 36 37 37 37 36 36 36 37 37 37 37 38 38 39 40 40 40 41 40 40 41 41 42 42 42 41 41 41 40 38
28 29 30 30 28 27 26 25 25 23 20 19 17 13 11 10 10 10 11 12 14 16 18 19 20 22 24 27 28 29 31 32 32 32 32 33 33 34 35 36 36 37 38 38 39 39 39 39 39 39 39 40 40 40 41 42 42 43 44 43 43 43 42 42 42 41 41 41 42 42 41 41 41 39
26 28 29 29 28 27 27 26 24 22 20 18 15 11 10 9 10 11 12 14 15 17 19 21 22 22 23 26 27 28 29 31 33 34 35 35 35 36 38 39 40 40 41 42 42 42 42 42 42 42 42 43 43 44 44 45 45 45 45 45 45 44 44 44 42 41 40 41 41 41 41 40 40 37
26 27 28 28 27 27 25 24 22 22 20 17 13 10 8 9 11 13 14 16 17 19 20 21 22 23 23 24 26 27 28 30 33 34 35 38 39 39 41 43 43 43 44 45 45 45 46 46 46 46 45 46 47 47 47 47 46 46 45 45 45 45 45 43 40 38 38 39 39 38 38 36 34 32
26 26 26 27 26 24 23 23 23 22 19 14 9 7 8 11 13 15 16 17 18 20 21 22 22 22 23 23 24 25 26 29 31 31 33 38 41 41 43 45 46 46 46 47 47 48 48 48 48 47 48 49 50 49 49 48 48 47 46 45 46 45 43 38 34 33 33 33 33 33 33 30 28 29
26 27 27 26 25 24 24 24 23 19 15 10 7 7 10 13 15 16 17 17 19 20 21 21 20 22 24 24 24 25 26 28 31 32 34 38 41 43 46 48 49 47 46 47 48 48 48 47 48 48 49 51 50 48 49 49 48 47 46 46 46 43 37 32 29 28 28 29 29 29 28 27 27 29
28 28 28 26 25 25 25 23 20 16 12 8 7 8 11 14 16 16 17 18 19 20 20 20 21 24 26 25 25 27 29 31 33 36 37 40 43 45 47 51 52 48 44 44 46 47 47 45 45 47 49 50 49 49 49 48 47 47 46 44 40 35 30 28 27 27 27 27 28 27 27 27 28 29
30 30 28 26 26 26 24 22 18 13 9 6 7 10 13 16 17 17 18 19 20 21 21 22 24 26 28 29 29 31 33 35 37 39 40 42 44 44 45 50 52 48 42 39 42 46 47 45 45 47 49 49 49 48 48 47 46 46 43 37 32 29 27 27 28 28 27 27 27 26 26 27 29 30
32 30 28 27 26 25 23 20 15 10 7 7 9 13 16 18 19 20 20 21 22 23 24 26 27 28 30 32 33 34 36 38 40 42 42 42 41 40 42 45 48 46 41 39 42 47 49 47 45 48 49 48 47 47 46 45 44 42 37 31 28 27 27 27 28 28 27 26 26 26 26 29 31 31
31 30 29 28 27 26 23 18 12 8 7 8 12 16 18 20 22 23 23 23 23 24 25 28 30 30 31 34 36 36 37 39 42 43 43 42 38 38 41 42 45 45 43 41 43 46 49 47 44 45 47 45 44 45 44 43 41 36 31 28 27 27 27 29 30 29 26 25 26 27 29 32 32 31
30 29 27 27 27 26 21 14 10 8 8 11 15 18 21 23 24 24 25 24 24 25 26 29 32 32 33 36 38 38 37 37 38 39 39 39 36 37 40 42 44 45 43 40 40 42 44 43 41 42 44 43 42 42 42 41 38 32 27 27 28 28 29 30 29 27 25 26 27 28 31 33 33 31
28 26 25 25 25 21 16 11 8 8 10 14 18 21 23 25 25 26 26 25 24 25 27 30 32 34 35 37 38 38 36 33 32 32 33 33 34 36 39 41 42 42 40 37 35 38 40 39 39 41 42 40 41 42 41 41 39 34 30 28 28 28 29 28 27 26 27 28 28 29 31 33 32 31
25 24 24 24 21 17 13 10 8 10 14 18 21 24 25 26 27 28 27 26 26 27 29 31 33 34 35 35 34 32 29 26 26 28 31 32 31 33 35 37 38 39 38 35 33 36 39 38 38 40 40 40 43 44 42 41 40 38 33 30 28 28 26 24 24 27 29 30 30 30 31 32 31 31
25 25 24 23 19 16 12 10 10 14 18 21 24 26 26 27 28 29 28 28 28 29 30 31 32 32 32 32 31 30 27 26 25 27 31 32 30 30 33 35 37 38 38 35 32 34 37 37 37 38 39 41 43 44 43 41 39 37 33 30 27 23 21 21 24 27 30 30 30 30 31 31 31 31
27 26 25 22 18 15 13 13 15 19 21 24 25 27 27 29 30 29 29 29 30 30 30 30 30 30 31 31 31 30 29 27 26 25 27 28 27 28 31 33 34 36 35 32 32 34 36 37 38 39 40 41 44 43 42 41 39 36 35 33 28 23 23 25 26 27 28 28 28 29 30 30 30 30
28 27 24 21 18 15 15 17 20 22 23 25 26 27 29 30 30 29 29 29 29 29 29 29 30 30 30 29 29 30 29 28 26 24 24 25 25 26 28 30 31 33 34 33 33 34 36 38 39 39 38 41 44 43 41 41 40 37 36 35 34 31 30 31 30 28 28 29 29 30 30 28 28 28
28 26 23 20 18 18 19 21 22 23 25 26 27 28 29 30 29 27 27 27 27 28 28 28 28 28 28 29 29 30 30 28 25 23 22 22 21 22 25 27 28 31 34 33 31 31 34 37 40 40 37 38 42 44 43 42 41 38 36 35 35 35 34 33 32 31 31 31 31 30 29 27 25 25
26 25 23 21 20 21 22 23 24 24 25 26 28 29 28 27 26 25 25 26 26 26 27 27 27 28 29 30 29 27 25 23 22 22 23 23 23 24 25 26 26 28 31 30 29 31 34 36 37 37 36 37 40 43 44 44 41 38 35 34 34 35 34 32 32 32 32 32 31 30 29 27 24 23
25 24 23 22 22 23 23 24 25 25 26 27 28 27 25 23 23 24 24 24 24 25 25 27 28 28 28 28 27 24 23 23 23 24 25 26 28 28 27 27 27 28 31 32 32 32 33 34 34 34 35 37 40 41 43 43 41 38 35 34 34 34 32 31 31 32 33 32 31 30 29 26 24 22
24 24 24 23 24 24 24 25 25 25 26 25 24 22 21 21 22 22 22 22 23 25 26 27 28 28 27 27 27 26 26 26 26 27 28 29 29 30 30 30 30 31 33 34 33 31 30 31 32 31 31 33 36 39 40 41 41 39 37 35 34 33 32 31 32 33 32 30 30 30 29 26 25 23
23 24 24 24 24 24 24 25 25 24 23 21 19 19 19 20 20 20 21 22 24 25 26 26 27 27 27 27 28 28 28 28 28 28 29 30 30 31 32 33 33 33 34 34 33 31 29 28 28 28 27 29 32 36 38 39 39 37 36 35 34 34 32 31 32 32 30 29 30 29 28 28 27 26
24 24 24 24 24 24 24 23 21 20 18 17 17 18 18 18 19 20 22 24 25 26 26 27 27 28 28 28 28 29 29 29 29 30 31 31 31 32 32 33 34 34 33 33 32 31 29 27 26 25 26 27 30 33 35 37 38 36 35 35 35 35 33 31 30 30 29 30 30 28 27 28 27 26
24 24 23 23 22 21 20 18 17 16 16 16 16 16 16 18 20 21 23 24 26 27 27 28 28 29 29 29 29 30 30 31 31 32 33 34 34 34 35 36 36 35 34 32 32 32 30 28 26 25 26 27 29 31 32 35 37 37 36 35 36 36 33 30 29 29 29 29 28 26 26 27 25 24
22 21 20 19 17 16 15 14 14 15 14 14 14 16 17 19 20 22 24 25 26 27 28 28 28 28 29 30 30 30 31 31 31 31 32 33 34 34 34 35 36 36 35 33 32 32 31 31 29 26 26 26 28 29 30 32 36 38 36 34 33 33 31 30 29 28 26 26 26 25 26 26 24 22
17 15 14 14 13 13 13 13 13 13 13 14 16 17 19 20 22 23 24 25 26 26 27 27 28 28 28 29 29 30 30 30 30 30 29 30 31 32 32 33 34 35 35 34 33 32 32 31 30 28 25 24 25 28 31 33 33 33 33 31 29 29 29 27 25 23 22 24 25 26 27 27 24 21
12 12 12 12 12 12 11 11 11 12 13 14 16 18 19 21 23 24 25 25 25 26 26 27 27 27 27 28 29 29 29 29 28 28 28 28 29 30 30 30 30 32 33 34 34 33 33 32 32 30 26 23 24 26 28 30 28 26 25 25 24 24 24 21 19 20 22 24 27 28 29 27 24 21
11 11 11 11 11 10 10 10 11 12 13 14 16 18 20 22 24 24 25 25 25 25 25 25 26 26 27 28 28 29 29 28 27 27 27 27 28 28 28 29 29 29 30 31 32 32 33 34 34 33 29 26 24 22 21 23 26 25 22 21 22 22 19 18 20 23 23 25 28 30 31 28 23 19
12 11 10 9 9 9 9 10 11 12 14 15 17 19 21 23 24 24 24 24 24 24 24 24 25 26 26 27 27 27 27 27 26 26 25 25 25 26 26 27 28 27 28 29 30 31 32 33 34 34 33 31 29 26 21 19 22 25 23 21 22 23 20 21 25 26 24 25 27 28 29 28 23 18
10 9 8 8 9 9 10 12 13 14 15 16 18 19 21 22 24 24 24 24 24 24 24 24 24 25 25 26 25 25 25 25 25 24 24 24 24 25 25 25 25 25 26 26 27 28 29 30 30 31 31 31 31 31 28 22 17 19 23 24 23 23 24 26 27 25 23 25 26 26 27 26 22 18
9 8 8 9 10 11 12 13 14 15 16 17 18 20 21 22 23 24 24 24 23 23 23 24 24 24 24 24 23 23 23 23 23 23 23 24 24 24 25 25 24 24 25 25 25 26 27 28 27 26 27 29 30 32 34 30 20 14 19 25 25 23 24 25 24 24 24 25 25 25 25 25 23 21
9 9 9 10 11 11 12 13 14 15 17 18 19 20 21 22 23 23 23 23 22 22 23 23 23 23 23 22 21 21 21 22 22 22 22 23 23 23 24 25 24 24 24 24 24 24 25 25 25 24 23 26 28 31 34 35 28 20 19 23 24 23 22 22 25 27 27 27 27 25 24 25 24 22
9 9 10 11 11 12 13 14 15 16 18 19 20 21 22 22 22 22 22 22 22 22 22 22 22 21 21 20 20 20 20 20 21 21 21 22 22 22 23 24 24 24 24 24 23 23 23 23 24 23 22 23 25 27 29 33 32 27 23 22 21 20 21 22 24 27 27 26 26 25 23 22 21 19
10 10 11 11 12 12 13 15 16 17 19 20 21 22 22 22 22 22 22 22 22 22 22 21 20 19 19 19 19 19 19 19 20 21 21 20 21 21 22 23 23 23 24 24 23 22 23 23 23 23 22 22 23 25 26 29 30 28 24 20 18 17 17 17 19 22 24 23 23 24 24 24 23 21
10 10 11 11 12 13 14 16 17 19 20 21 22 22 22 22 22 22 22 22 22 21 21 20 19 18 18 18 18 18 18 18 18 19 19 20 20 20 20 21 22 22 22 23 23 22 22 22 22 22 22 22 23 24 26 28 29 28 25 22 18 14 13 13 14 16 18 19 21 23 24 25 24 24
10 11 11 12 13 14 15 17 18 20 21 22 22 22 22 22 22 22 22 22 21 21 20 19 18 17 17 17 18 18 18 18 18 18 19 19 19 19 20 20 21 21 22 22 22 22 21 21 22 23 22 22 23 24 26 27 28 28 26 23 19 14 11 10 10 11 13 15 16 19 20 22 23 25
11 11 12 13 14 15 17 18 20 21 21 22 22 22 22 22 22 22 22 22 21 20 19 18 17 17 17 17 18 18 17 17 18 18 18 18 19 19 20 20 20 21 21 21 21 21 20 20 22 22 22 21 21 22 24 25 26 26 25 23 21 18 14 10 8 8 9 10 11 12 14 16 20 23
12 13 13 14 16 17 18 19 20 21 22 22 23 22 22 22 22 22 22 22 21 20 19 18 17 17 17 17 17 17 17 17 17 17 18 18 18 19 19 20 20 20 21 21 21 20 19 19 20 21 21 20 20 21 22 23 23 24 24 23 22 21 18 15 12 8 5 4 7 10 10 12 14 17
14 14 15 16 17 18 19 20 21 22 22 22 22 22 22 22 22 22 22 22 21 20 20 19 18 17 17 18 17 17 16 16 16 17 17 18 18 18 18 19 20 20 20 21 21 20 19 18 18 18 19 18 18 19 20 21 21 22 22 22 22 21 20 18 17 14 10 7 7 9 11 11 13 14
Wind_Direction
229 229 232 235 234 234 234 237 236 235 240 249 252 250 248 244 240 238 241 250 256 258 267 279 288 292 296 297 296 298 300 300 299 299 298 299 300 301 301 302 303 303 305 306 306 306 306 307 307 308 308 307 306 306 306 306 305 305 306 305 303 301 301 302 303 304 304 306 309 312 315 316 316 315
227 230 233 234 232 231 231 232 234 237 242 247 247 243 241 239 241 242 238 235 239 246 258 272 282 289 295 295 296 299 301 302 302 301 301 301 301 301 301 303 304 305 306 306 306 307 307 307 308 308 308 306 306 306 305 305 305 305 305 304 302 300 301 301 302 303 304 305 308 310 312 312 312 312
226 229 233 233 231 230 230 230 232 237 240 240 237 232 229 229 231 235 231 225 229 243 254 268 279 286 289 291 294 298 300 302 302 302 302 303 303 302 303 304 305 305 306 306 306 307 307 307 308 307 307 306 306 305 305 304 304 305 304 303 301 300 300 301 302 303 304 305 307 308 309 309 309 310
229 232 235 234 232 229 228 229 232 234 234 229 223 218 217 219 220 222 227 228 234 249 264 275 283 286 287 290 294 297 300 302 303 303 303 304 304 304 304 305 306 307 307 306 306 307 307 308 308 307 307 307 307 305 305 305 305 305 304 302 301 301 301 301 302 303 304 305 306 307 307 307 307 307
234 237 237 236 232 226 226 230 230 228 224 217 211 209 211 214 217 221 230 240 248 262 275 282 285 285 287 290 293 296 299 300 301 301 303 304 304 303 304 305 306 307 307 306 307 307 308 309 308 309 309 309 308 306 306 307 307 307 305 303 303 302 302 303 303 304 304 304 305 304 305 305 305 305
238 239 238 234 226 221 225 228 225 219 214 208 206 209 213 216 224 235 247 258 268 276 282 287 288 286 286 288 290 293 295 297 298 299 300 301 301 301 303 304 304 306 307 307 307 308 308 308 308 309 310 309 308 308 309 309 309 308 306 305 304 304 304 304 304 304 303 303 303 303 303 303 303 302
240 238 235 229 222 221 224 223 217 210 206 206 210 213 217 224 239 255 267 275 281 288 291 293 293 291 288 288 289 290 291 294 296 297 297 298 299 301 302 302 303 304 306 306 306 307 307 307 308 309 309 309 309 310 311 311 310 309 309 307 306 306 306 305 305 304 303 302 302 302 302 302 302 301
239 236 231 225 221 222 222 217 210 205 205 210 213 215 222 237 254 265 276 284 291 298 300 300 299 296 293 291 289 290 290 293 295 296 296 297 299 301 301 301 301 303 305 305 305 306 306 307 307 308 309 309 309 310 311 311 311 310 310 309 308 307 307 306 305 303 302 301 300 300 301 302 301 299
237 233 227 223 221 221 219 212 205 204 208 210 210 215 229 244 258 270 282 292 299 303 304 306 305 299 295 292 290 290 292 294 296 296 297 299 300 300 299 299 301 303 304 305 305 305 306 306 306 306 307 307 307 308 308 308 309 309 308 308 308 308 307 306 305 303 302 300 300 300 301 302 301 298
233 228 224 222 221 220 217 211 206 205 205 204 207 219 234 250 269 284 294 299 301 303 305 307 305 302 298 296 295 295 295 297 298 299 300 300 299 300 299 298 300 303 304 304 304 304 305 305 304 305 305 305 305 305 305 305 305 305 305 306 306 306 305 304 303 301 299 298 298 300 301 301 299 296
228 224 222 220 218 217 214 210 206 203 201 202 210 227 249 276 293 300 302 302 303 305 306 306 305 303 302 301 301 302 302 302 303 306 308 303 299 301 301 300 300 302 302 302 302 303 303 303 303 303 303 303 303 303 303 304 304 305 305 306 305 304 303 302 299 297 295 295 297 299 300 298 296 294
222 218 216 215 214 211 208 204 202 201 201 205 219 250 286 305 311 310 307 306 306 307 306 306 305 304 303 303 305 306 309 310 309 313 314 308 303 305 304 302 302 303 303 302 302 302 302 302 302 302 302 302 303 303 304 305 305 306 306 305 305 304 303 300 296 294 293 294 298 299 298 295 292 294
215 211 209 208 207 203 199 197 197 198 202 214 244 285 308 317 319 317 312 309 309 307 306 306 305 304 302 303 306 308 311 314 313 313 314 310 307 309 307 304 304 306 305 304 303 302 302 301 301 301 301 302 302 303 304 304 305 305 305 306 305 303 300 295 291 292 294 293 295 296 293 290 291 295
207 205 204 202 199 197 195 195 196 199 207 231 272 301 317 324 325 322 316 311 309 306 305 304 302 301 299 301 308 308 309 313 313 311 311 310 309 310 308 305 305 307 306 304 303 302 302 301 301 301 301 302 302 302 302 303 304 305 307 307 304 299 294 291 290 293 295 293 293 294 291 290 294 298
205 202 201 198 196 197 196 197 197 202 220 258 294 313 324 327 327 325 318 311 306 303 302 300 298 297 298 301 306 307 308 311 312 311 311 311 310 309 307 304 305 307 306 303 300 299 300 300 299 299 300 300 300 300 301 303 304 306 307 303 298 292 288 288 291 293 295 295 295 294 293 294 298 300
210 206 202 198 197 198 198 198 200 212 245 283 307 319 325 325 325 323 317 312 306 301 299 297 296 298 300 301 304 309 311 312 312 312 310 309 308 306 303 301 302 304 303 299 297 297 300 301 298 298 300 299 299 300 301 302 304 304 301 296 291 288 286 287 291 293 293 295 298 296 296 299 301 300
215 212 207 201 199 198 197 199 209 232 267 295 311 318 320 320 320 319 317 313 306 299 296 295 296 300 303 301 304 311 314 312 312 311 310 309 308 305 303 301 302 304 303 300 299 299 303 305 301 299 301 302 300 301 302 303 304 301 295 292 290 288 288 290 293 293 292 294 300 300 300 302 303 301
217 214 211 207 201 197 197 204 223 248 278 300 309 312 312 313 315 315 313 309 302 296 294 294 295 300 304 304 306 311 313 312 311 310 309 309 308 306 304 303 303 304 306 305 302 300 304 308 304 301 304 306 304 305 305 305 304 299 291 291 291 289 291 293 293 292 291 295 302 303 302 304 304 302
217 215 212 206 199 196 200 213 235 261 287 300 303 306 308 309 310 309 307 304 300 295 292 292 295 299 303 305 307 309 310 310 309 307 305 303 304 304 303 304 305 307 310 311 307 302 305 308 305 303 307 308 306 305 305 305 304 301 295 292 291 290 292 293 293 294 296 300 303 303 303 305 304 301
213 209 202 197 196 200 211 225 247 276 290 296 299 303 304 303 303 304 304 302 297 294 292 293 296 300 303 306 309 311 313 311 309 307 305 306 309 309 308 309 311 312 314 316 311 304 305 307 306 305 307 307 304 304 304 303 303 303 300 294 291 292 291 290 292 296 299 302 303 303 306 306 304 302
204 199 194 195 201 209 220 238 265 282 288 293 297 299 298 298 299 301 302 300 297 296 295 297 301 305 309 312 314 315 314 313 314 314 312 316 321 317 311 309 310 313 315 315 311 306 305 307 307 306 306 305 303 303 304 303 302 302 301 297 293 289 285 287 293 298 301 304 304 305 307 308 307 305
197 195 195 200 208 219 235 258 274 281 286 291 294 294 294 296 298 301 301 299 298 298 300 305 310 313 314 313 313 315 317 319 323 322 319 322 322 314 308 308 308 310 312 312 311 307 306 308 308 308 307 306 304 305 305 304 303 303 303 303 298 290 287 292 297 300 302 304 304 305 308 311 311 308
194 196 201 206 217 233 251 267 274 279 284 287 290 291 293 296 299 301 300 298 300 305 309 313 313 312 313 315 317 321 323 325 327 325 321 320 317 309 307 308 306 304 305 311 314 310 307 310 310 310 309 306 304 305 304 303 303 303 304 304 302 299 299 300 301 303 304 305 306 307 311 314 313 309
197 200 207 216 229 245 257 265 271 276 280 284 286 289 293 296 299 299 300 303 309 312 312 311 313 316 320 323 323 324 326 328 328 324 319 317 313 307 303 302 299 298 303 312 314 307 304 307 308 308 307 302 301 303 303 302 302 302 301 301 301 300 301 301 303 306 308 308 308 309 313 317 315 313
206 210 216 227 238 248 255 262 267 272 277 280 285 289 294 297 299 301 306 310 311 310 310 313 318 323 324 323 324 326 326 324 319 314 310 308 307 306 304 303 302 301 302 305 305 302 304 306 306 306 304 300 298 300 301 300 300 300 300 299 299 299 300 302 305 308 308 308 309 311 315 320 318 313
212 217 224 232 240 248 254 260 266 271 276 282 287 292 296 299 301 304 307 307 307 310 315 320 322 323 323 323 323 322 317 313 309 306 305 303 302 303 304 305 305 304 301 301 302 304 305 305 304 305 303 301 300 300 299 299 299 300 300 299 299 300 301 303 305 306 307 307 308 312 317 321 318 313
214 220 226 233 240 247 253 260 266 273 279 285 289 293 296 298 300 302 303 307 313 318 321 322 321 321 322 321 320 318 317 316 315 311 309 308 307 308 308 308 308 306 305 306 308 309 308 305 305 305 305 304 303 301 299 299 300 301 300 299 299 299 300 302 304 304 305 306 307 312 317 319 319 318
216 222 228 235 241 248 255 263 270 276 281 286 289 292 295 297 300 305 310 315 319 320 320 320 320 321 322 322 322 322 321 320 319 316 314 314 314 314 314 313 312 312 313 315 316 317 317 314 311 310 308 307 305 304 303 303 303 304 303 300 298 298 300 303 304 304 305 305 308 314 319 321 323 324
216 223 230 237 245 253 260 267 273 278 281 286 289 292 296 302 308 314 316 318 318 319 319 321 323 324 325 325 325 323 323 322 322 321 320 319 320 320 319 318 318 319 321 322 322 323 324 321 318 315 312 309 307 306 307 307 306 307 306 302 300 300 301 304 305 304 304 305 310 317 321 322 323 324
220 228 235 243 251 258 264 269 273 277 281 286 292 298 305 312 316 316 316 317 319 320 323 325 326 326 325 324 324 323 323 324 325 325 324 324 325 326 324 324 324 325 327 328 328 329 328 326 324 318 312 310 308 307 308 308 307 307 306 304 302 302 302 304 306 305 304 307 314 320 321 319 320 322
229 235 241 247 253 257 262 267 271 277 284 292 301 309 313 315 315 315 317 320 322 324 325 325 324 324 323 323 323 323 323 326 327 328 327 326 326 327 326 325 325 326 328 331 333 333 332 331 330 325 318 314 312 311 309 307 306 306 306 305 304 303 304 306 306 305 307 311 317 320 316 316 322 324
228 233 237 243 248 253 260 267 275 285 297 305 311 313 314 314 315 317 320 323 323 323 323 322 321 321 321 321 321 322 324 326 327 327 326 326 325 326 326 325 326 327 328 330 333 335 335 334 333 330 326 319 314 311 307 306 308 309 309 309 308 304 305 308 307 309 316 318 318 318 315 317 326 327
218 225 231 238 246 253 262 273 285 297 305 310 312 314 315 316 317 320 322 322 322 320 320 320 320 319 319 320 321 322 324 326 326 326 326 326 326 326 326 326 328 330 329 330 333 334 334 334 334 333 331 324 317 315 314 315 320 323 321 319 317 312 312 313 313 319 326 324 319 316 314 320 329 328
215 222 230 238 248 259 271 282 291 298 304 309 312 314 316 316 317 319 319 319 318 318 317 318 318 317 318 319 321 322 324 325 325 325 326 326 326 326 326 327 329 331 332 332 333 334 334 335 336 335 334 331 329 332 336 333 332 336 336 330 326 326 325 320 319 327 330 323 317 314 314 320 329 328
217 223 232 244 256 267 278 285 293 300 306 310 313 314 315 315 315 315 316 315 315 316 316 315 315 316 317 319 320 322 323 323 324 325 325 325 326 327 327 328 330 332 333 333 335 338 338 338 338 337 338 338 337 339 346 344 334 331 333 331 329 329 324 314 318 327 327 318 315 315 316 321 327 329
222 229 238 252 265 275 284 292 299 305 309 311 312 312 312 312 312 312 312 313 314 314 313 313 313 315 316 318 320 321 321 321 322 323 324 326 327 328 328 330 331 333 335 336 339 341 340 341 342 341 339 338 335 331 334 342 339 327 326 327 323 317 311 309 315 322 319 315 316 319 322 325 329 333
231 239 249 263 276 285 293 299 303 307 309 310 310 311 310 309 310 309 309 310 311 311 310 310 312 314 315 317 318 319 319 320 321 323 325 327 328 328 328 330 332 335 337 339 341 343 343 343 344 342 336 331 328 323 325 333 344 344 333 327 320 313 313 315 316 316 316 319 322 325 328 330 330 334
241 254 265 276 285 290 295 300 303 306 308 309 308 308 307 307 307 307 307 307 307 307 307 307 309 311 313 314 316 317 317 319 321 323 325 326 327 328 329 331 334 336 337 340 342 344 344 343 343 341 334 326 323 322 322 326 333 343 342 333 326 321 320 319 318 318 321 325 326 326 327 326 326 332
254 265 273 280 287 292 296 301 304 305 307 307 306 306 305 305 305 304 303 304 303 303 304 305 307 309 310 312 314 315 317 320 321 323 325 325 326 328 328 331 334 335 336 339 342 344 344 342 339 338 335 328 325 323 319 318 322 328 334 333 328 323 318 316 317 319 320 320 321 322 323 324 328 336
263 271 278 284 290 295 299 302 303 304 305 305 304 304 303 303 302 301 300 300 300 301 302 303 304 306 307 309 311 313 317 320 320 321 323 324 325 326 327 330 333 334 334 337 341 343 342 339 336 334 332 328 325 322 317 315 319 325 330 333 333 330 323 319 317 315 314 317 321 323 326 329 334 341
265 272 279 285 291 295 298 300 301 302 302 302 301 301 301 300 298 297 297 297 297 298 299 300 301 303 304 307 309 312 315 317 317 319 321 322 323 325 326 328 330 331 332 334 338 341 340 336 332 329 327 326 325 323 322 324 327 331 335 338 340 338 331 324 318 312 313 321 324 322 323 327 332 338
265 272 278 285 290 293 296 297 298 298 299 298 298 298 297 296 295 294 294 294 295 296 296 297 298 299 301 304 306 309 313 315 316 318 320 320 322 324 325 327 328 329 330 332 335 338 339 336 330 327 327 330 329 327 328 331 332 334 337 340 342 343 339 332 324 317 318 322 318 315 321 329 332 333
267 273 279 285 289 291 293 295 295 296 295 295 294 294 293 292 291 291 291 292 293 293 293 293 294 296 298 301 303 307 310 313 314 316 318 319 321 323 325 326 327 328 328 329 332 336 338 335 331 328 329 332 332 329 331 333 334 335 339 341 342 346 349 347 336 324 323 322 311 308 321 331 329 326
271 276 281 285 288 290 292 293 293 293 292 291 290 290 289 288 288 288 289 290 290 290 289 289 290 292 295 297 300 303 307 309 311 313 315 317 319 322 324 325 326 328 328 327 329 334 337 336 332 329 330 333 333 332 332 334 336 340 343 343 344 346 349 350 347 339 337 337 316 308 313 321 322 323
276 280 283 286 288 289 290 290 290 290 289 288 287 286 285 286 286 287 287 288 288 287 286 287 288 290 293 295 297 300 302 304 307 310 312 315 318 321 322 323 324 326 327 325 326 331 336 337 334 331 330 332 332 331 333 335 339 342 343 342 344 345 345 345 345 342 342 351 340 320 315 319 323 324